Date String (YYYY-MM-DD hh:mm:ss) UTC,Instrument flags,Ambient pressure (hPa),Sample flow (lpm),Bypass flow (lpm),Sample temperature (°C),Ambient temperature (°C),ASC tube jacket temperature (°C),LED temperature (°C),Box temperature (°C),Sample RH (%),Span deviation,Mass concentration (μg/m³),Mass concentration (μg/m³),Mass concentration (μg/m³)
DateTimeUTC,F1_M11,P_M11,Q1_M11,Q2_M11,T1_M11,T2_M11,T3_M11,T4_M11,T5_M11,U1_M11,ZSPAN_M11,X0_M11,X2_M11,X1_M11
2023-01-26 18:00:00,,0826.5,4.99,0.00,21.9,21.3,00.0,30.5,23.7,05.4,0000.0,0001.63,0000.86,0000.58
2023-01-26 18:01:00,,0826.5,5.02,0.00,21.9,21.1,00.0,30.6,23.7,05.3,0000.0,0001.61,0000.85,0000.59
2023-01-26 18:02:00,,0826.5,4.99,0.00,21.9,20.9,00.0,30.6,23.7,05.4,0000.0,0002.99,0000.91,0000.59
2023-01-26 18:03:00,,0826.5,5.01,0.00,21.9,20.8,00.0,30.6,23.7,05.5,0000.0,0006.08,0001.05,0000.60
2023-01-26 18:04:00,,0826.5,4.99,0.00,21.9,20.8,00.0,30.6,23.7,05.6,0000.0,0006.00,0001.05,0000.60
2023-01-26 18:05:00,,0826.5,5.00,0.00,21.9,20.7,00.0,30.6,23.7,05.8,0000.0,0006.09,0001.09,0000.60
2023-01-26 18:06:00,,0826.5,5.00,0.00,21.9,20.9,00.0,30.6,23.7,05.6,0000.0,0006.12,0001.10,0000.61
2023-01-26 18:07:00,,0826.4,5.01,0.00,22.0,21.1,00.0,30.7,23.8,05.8,0000.0,0006.11,0001.10,0000.61
2023-01-26 18:08:00,,0826.4,5.00,0.00,22.0,21.2,00.0,30.7,23.9,05.4,0000.0,0006.15,0001.11,0000.62
2023-01-26 18:09:00,,0826.4,4.99,0.00,22.1,21.2,00.0,30.7,23.9,05.4,0000.0,0006.09,0001.06,0000.61
2023-01-26 18:10:00,,0826.3,5.00,0.00,22.1,21.3,00.0,30.7,23.9,05.2,0000.0,0005.83,0000.97,0000.59
2023-01-26 18:11:00,,0826.3,5.00,0.00,22.1,21.3,00.0,30.8,24.0,05.6,0000.0,0005.77,0000.94,0000.58
2023-01-26 18:12:00,,0826.2,5.00,0.00,22.1,21.3,00.0,30.8,24.0,05.6,0000.0,0005.73,0000.94,0000.59
2023-01-26 18:13:00,,0826.3,5.00,0.00,22.2,21.2,00.0,30.8,24.0,05.4,0000.0,0004.76,0000.88,0000.58
2023-01-26 18:14:00,,0826.2,4.99,0.00,22.2,21.2,00.0,30.8,24.0,05.4,0000.0,0001.50,0000.74,0000.57
2023-01-26 18:15:00,,0826.2,5.02,0.00,22.2,21.2,00.0,30.8,24.0,05.2,0000.0,0001.13,0000.70,0000.56
2023-01-26 18:16:00,,0826.2,5.02,0.00,22.2,21.2,00.0,30.8,24.0,05.0,0000.0,0001.04,0000.67,0000.57
2023-01-26 18:17:00,,0826.2,5.02,0.00,22.2,21.3,00.0,30.9,24.1,05.1,0000.0,0001.00,0000.66,0000.56
2023-01-26 18:18:00,,0826.2,5.03,0.00,22.3,21.4,00.0,30.9,24.1,05.2,0000.0,0000.97,0000.64,0000.56
2023-01-26 18:19:00,,0826.2,5.00,0.00,22.3,21.4,00.0,30.9,24.1,05.2,0000.0,0000.93,0000.62,0000.55
2023-01-26 18:20:00,,0826.2,5.00,0.00,22.3,21.5,00.0,30.9,24.1,05.8,0000.0,0000.79,0000.60,0000.54
2023-01-26 18:21:00,,0826.2,5.00,0.00,22.4,21.5,00.0,31.0,24.2,05.4,0000.0,0000.92,0000.63,0000.54
2023-01-26 18:22:00,,0826.2,5.00,0.00,22.4,21.5,00.0,31.0,24.2,05.3,0000.0,0001.01,0000.66,0000.55
2023-01-26 18:23:00,,0826.1,5.02,0.00,22.4,21.6,00.0,31.0,24.2,05.7,0000.0,0001.34,0000.67,0000.55
2023-01-26 18:24:00,,0826.2,5.01,0.00,22.5,21.6,00.0,31.0,24.2,05.4,0000.0,0002.00,0000.70,0000.55
2023-01-26 18:25:00,,0826.2,4.99,0.00,22.5,21.6,00.0,31.1,24.3,04.9,0000.0,0002.07,0000.74,0000.56
2023-01-26 18:26:00,,0826.1,5.04,0.00,22.5,21.7,00.0,31.1,24.3,05.0,0000.0,0002.21,0000.80,0000.58
2023-01-26 18:27:00,,0826.1,4.99,0.00,22.5,21.7,00.0,31.1,24.3,05.2,0000.0,0002.31,0000.83,0000.57
2023-01-26 18:28:00,,0826.0,4.98,0.00,22.6,21.6,00.0,31.1,24.3,05.1,0000.0,0002.83,0000.85,0000.57
2023-01-26 18:29:00,,0826.0,4.99,0.00,22.6,21.6,00.0,31.2,24.3,05.2,0000.0,0003.52,0000.89,0000.58
2023-01-26 18:30:00,,0826.0,5.02,0.00,22.6,21.6,00.0,31.2,24.4,04.9,0000.0,0003.53,0000.90,0000.58
2023-01-26 18:31:00,,0826.0,4.99,0.00,22.6,21.6,00.0,31.2,24.3,04.5,0000.0,0003.64,0000.91,0000.59
2023-01-26 18:32:00,,0826.0,5.00,0.00,22.6,21.6,00.0,31.2,24.3,04.7,0000.0,0003.68,0000.90,0000.59
2023-01-26 18:33:00,,0825.9,5.02,0.00,22.6,21.6,00.0,31.3,24.3,04.7,0000.0,0003.65,0000.88,0000.59
2023-01-26 18:34:00,,0825.9,5.00,0.00,22.6,21.6,00.0,31.3,24.3,04.9,0000.0,0003.32,0000.86,0000.59
2023-01-26 18:35:00,,0825.8,5.00,0.00,22.6,21.6,00.0,31.3,24.3,05.6,0000.0,0002.81,0000.87,0000.60
2023-01-26 18:36:00,,0826.2,4.98,0.00,22.6,21.6,00.0,31.3,24.4,05.4,0000.0,0002.79,0000.87,0000.60
2023-01-26 18:37:00,,0825.9,5.01,0.00,22.7,21.6,00.0,31.3,24.4,04.8,0000.0,0002.66,0000.81,0000.59
2023-01-26 18:38:00,,0825.7,5.00,0.00,22.7,21.5,00.0,31.3,24.4,04.7,0000.0,0002.59,0000.78,0000.59
2023-01-26 18:39:00,,0825.7,5.01,0.00,22.7,21.5,00.0,31.4,24.4,04.8,0000.0,0002.09,0000.76,0000.59
2023-01-26 18:40:00,,0825.7,4.99,0.00,22.7,21.5,00.0,31.4,24.4,05.0,0000.0,0001.49,0000.76,0000.58
2023-01-26 18:41:00,,0825.7,5.00,0.00,22.7,21.5,00.0,31.4,24.3,04.8,0000.0,0001.49,0000.75,0000.58
2023-01-26 18:42:00,,0825.6,4.99,0.00,22.7,21.4,00.0,31.4,24.3,04.9,0000.0,0001.40,0000.75,0000.58
2023-01-26 18:43:00,,0825.6,5.00,0.00,22.7,21.4,00.0,31.4,24.3,04.9,0000.0,0001.22,0000.73,0000.59
2023-01-26 18:44:00,,0825.6,4.99,0.00,22.7,21.4,00.0,31.4,24.3,06.1,0000.0,0001.20,0000.75,0000.60
2023-01-26 18:45:00,,0825.6,5.00,0.00,22.7,21.4,00.0,31.4,24.3,05.8,0000.0,0001.19,0000.75,0000.61
2023-01-26 18:46:00,,0825.5,5.01,0.00,22.7,21.4,00.0,31.4,24.3,05.8,0000.0,0001.06,0000.73,0000.60
2023-01-26 18:47:00,,0825.5,4.99,0.00,22.7,21.5,00.0,31.4,24.3,05.9,0000.0,0001.02,0000.72,0000.59
2023-01-26 18:48:00,,0825.5,5.02,0.00,22.7,21.4,00.0,31.4,24.3,05.8,0000.0,0001.05,0000.73,0000.60
2023-01-26 18:49:00,,0825.5,5.01,0.00,22.7,21.4,00.0,31.5,24.3,06.3,0000.0,0001.11,0000.76,0000.61
2023-01-26 18:50:00,,0825.4,5.00,0.00,22.7,21.4,00.0,31.5,24.3,06.6,0000.0,0001.17,0000.80,0000.63
2023-01-26 18:51:00,,0825.5,4.99,0.00,22.7,21.4,00.0,31.5,24.3,05.6,0000.0,0001.09,0000.78,0000.64
2023-01-26 18:52:00,,0825.4,5.01,0.00,22.7,21.4,00.0,31.5,24.3,06.2,0000.0,0001.15,0000.83,0000.65
2023-01-26 18:53:00,,0825.5,5.01,0.00,22.7,21.4,00.0,31.5,24.3,06.7,0000.0,0001.26,0000.88,0000.67
2023-01-26 18:54:00,,0825.4,5.02,0.00,22.7,21.3,00.0,31.5,24.3,06.3,0000.0,0001.27,0000.88,0000.67
2023-01-26 18:55:00,,0825.4,4.99,0.00,22.7,21.3,00.0,31.5,24.3,06.3,0000.0,0001.24,0000.86,0000.67
2023-01-26 18:56:00,,0825.4,5.00,0.00,22.7,21.3,00.0,31.5,24.3,06.1,0000.0,0001.26,0000.86,0000.66
2023-01-26 18:57:00,,0825.4,5.00,0.00,22.7,21.3,00.0,31.5,24.3,05.8,0000.0,0001.22,0000.83,0000.65
2023-01-26 18:58:00,,0825.3,5.02,0.00,22.7,21.3,00.0,31.5,24.3,05.7,0000.0,0001.20,0000.81,0000.64
2023-01-26 18:59:00,,0825.2,5.00,0.00,22.7,21.3,00.0,31.5,24.3,05.3,0000.0,0001.32,0000.82,0000.63
